When you browse on this site, cookies collect data to enhance your experience and personalize the content and advertising you see.
Visit our Privacy Policy to learn more. By continuing to use the site, you agree to this use of cookies and data.
  • In Hungary
  • List of Countries
  • For 7 days
  • Water Temperature
  • Weather Map
  • News
  • Weather Widgets
  • user-avatar
    Login

    Hourly Weather Bronowko

    Today, 9 December, Monday

    Time Temperature Precipitation Wind Pressure Humidity
    00:00 +4°C° 0.1 mm 6 mps 730 mmHg 86%
    01:00 +5°C° 0.1 mm 5 mps 730 mmHg 87%
    02:00 +3°C° 0 mm 5 mps 730 mmHg 86%
    03:00 +3°C° 0 mm 6 mps 729 mmHg 86%
    04:00 +3°C° 0 mm 6 mps 729 mmHg 85%
    05:00 +3°C° 0.5 mm 6 mps 730 mmHg 85%
    06:00 +3°C° 0.5 mm 5 mps 730 mmHg 86%
    07:00 +3°C° 0.5 mm 5 mps 730 mmHg 86%
    08:00 +3°C° 0 mm 6 mps 730 mmHg 83%
    09:00 +3°C° 0 mm 6 mps 731 mmHg 81%
    10:00 +3°C° 0 mm 6 mps 731 mmHg 79%
    11:00 +3°C° 0 mm 6 mps 731 mmHg 77%
    12:00 +4°C° 0 mm 6 mps 731 mmHg 75%
    13:00 +4°C° 0 mm 6 mps 731 mmHg 73%
    14:00 +4°C° 0 mm 6 mps 731 mmHg 75%
    15:00 +5°C° 0 mm 5 mps 731 mmHg 77%
    16:00 +4°C° 0 mm 4 mps 731 mmHg 79%
    17:00 +4°C° 0 mm 4 mps 732 mmHg 80%
    18:00 +4°C° 0 mm 4 mps 732 mmHg 82%
    19:00 +4°C° 0 mm 4 mps 732 mmHg 83%
    20:00 +4°C° 0 mm 4 mps 733 mmHg 84%
    21:00 +3°C° 0 mm 5 mps 733 mmHg 86%
    22:00 +2°C° 0 mm 5 mps 733 mmHg 87%
    23:00 +2°C° 0.2 mm 5 mps 733 mmHg 83%

    Tomorrow, 10 December, Tuesday

    Time Temperature Precipitation Wind Pressure Humidity
    00:00 +3°C° 0.2 mm 4 mps 734 mmHg 79%
    01:00 +1°C° 0.2 mm 4 mps 734 mmHg 75%
    02:00 +1°C° 0 mm 5 mps 735 mmHg 80%
    03:00 -1°C° 0 mm 6 mps 735 mmHg 86%
    04:00 -1°C° 0 mm 7 mps 735 mmHg 91%
    05:00 -1°C° 0.3 mm 8 mps 736 mmHg 90%
    06:00 -1°C° 0.3 mm 8 mps 738 mmHg 89%
    07:00 -1°C° 0.3 mm 9 mps 739 mmHg 88%
    08:00 -1°C° 0.2 mm 9 mps 740 mmHg 89%
    09:00 -2°C° 0.2 mm 8 mps 741 mmHg 90%
    10:00 -2°C° 0.2 mm 8 mps 742 mmHg 91%
    11:00 -2°C° 0.1 mm 7 mps 743 mmHg 87%
    12:00 -2°C° 0.1 mm 6 mps 744 mmHg 83%
    13:00 -2°C° 0.1 mm 6 mps 745 mmHg 79%
    14:00 -1°C° 0 mm 5 mps 746 mmHg 77%
    15:00 -2°C° 0 mm 4 mps 746 mmHg 76%
    16:00 -1°C° 0 mm 3 mps 747 mmHg 74%
    17:00 -1°C° 0 mm 2 mps 747 mmHg 75%
    18:00 -2°C° 0 mm 2 mps 748 mmHg 75%
    19:00 -2°C° 0 mm 2 mps 748 mmHg 75%
    20:00 -2°C° 0 mm 2 mps 748 mmHg 74%
    21:00 -2°C° 0 mm 2 mps 748 mmHg 73%
    22:00 -2°C° 0 mm 2 mps 748 mmHg 72%
    23:00 -2°C° 0 mm 2 mps 748 mmHg 71%

    Day after tomorrow, 11 December, Wednesday

    Time Temperature Precipitation Wind Pressure Humidity
    00:00 -2°C° 0 mm 3 mps 748 mmHg 70%
    01:00 -2°C° 0 mm 3 mps 747 mmHg 70%
    02:00 -2°C° 0 mm 3 mps 747 mmHg 69%
    03:00 -3°C° 0 mm 4 mps 746 mmHg 68%
    04:00 -3°C° 0 mm 4 mps 745 mmHg 67%
    05:00 -4°C° 0 mm 5 mps 745 mmHg 66%
    06:00 -4°C° 0 mm 5 mps 744 mmHg 65%
    07:00 -4°C° 0 mm 6 mps 744 mmHg 64%
    08:00 -4°C° 0 mm 6 mps 743 mmHg 62%
    09:00 -3°C° 0 mm 6 mps 743 mmHg 60%
    10:00 -3°C° 0 mm 7 mps 743 mmHg 58%
    11:00 -3°C° 0 mm 7 mps 742 mmHg 55%
    12:00 -2°C° 0 mm 7 mps 741 mmHg 53%
    13:00 -2°C° 0 mm 7 mps 741 mmHg 50%
    14:00 -2°C° 0 mm 6 mps 740 mmHg 49%
    15:00 -3°C° 0 mm 6 mps 739 mmHg 49%
    16:00 -3°C° 0 mm 6 mps 739 mmHg 48%
    17:00 -3°C° 0 mm 6 mps 738 mmHg 50%
    18:00 -3°C° 0 mm 6 mps 738 mmHg 52%
    19:00 -3°C° 0 mm 7 mps 737 mmHg 54%
    20:00 -3°C° 0 mm 7 mps 737 mmHg 56%
    21:00 -3°C° 0 mm 6 mps 737 mmHg 58%
    22:00 -3°C° 0 mm 6 mps 736 mmHg 59%
    23:00 -3°C° 0 mm 6 mps 736 mmHg 62%

    12 December, Thursday

    Time Temperature Precipitation Wind Pressure Humidity
    00:00 -4°C° 0 mm 6 mps 735 mmHg 64%
    01:00 -4°C° 0 mm 5 mps 735 mmHg 66%
    02:00 -4°C° 0 mm 5 mps 734 mmHg 69%
    03:00 -4°C° 0 mm 6 mps 733 mmHg 72%
    04:00 -4°C° 0 mm 6 mps 733 mmHg 74%
    05:00 -4°C° 0.2 mm 5 mps 733 mmHg 81%
    06:00 -2°C° 0.2 mm 5 mps 733 mmHg 88%
    07:00 -2°C° 0.2 mm 5 mps 733 mmHg 95%
    08:00 -1°C° 0.1 mm 5 mps 733 mmHg 95%
    09:00 -1°C° 0.1 mm 5 mps 733 mmHg 95%
    10:00 0°C° 0.1 mm 5 mps 734 mmHg 95%
    11:00 0°C° 0.1 mm 5 mps 734 mmHg 95%
    12:00 0°C° 0.1 mm 5 mps 734 mmHg 95%
    13:00 0°C° 0.1 mm 4 mps 735 mmHg 95%
    14:00 0°C° 0 mm 4 mps 735 mmHg 94%
    15:00 0°C° 0 mm 3 mps 735 mmHg 93%
    16:00 0°C° 0 mm 3 mps 735 mmHg 93%
    17:00 0°C° 0 mm 3 mps 734 mmHg 92%
    18:00 -2°C° 0 mm 4 mps 734 mmHg 92%
    19:00 -2°C° 0 mm 4 mps 734 mmHg 92%
    20:00 -2°C° 0 mm 4 mps 733 mmHg 92%
    21:00 -2°C° 0 mm 4 mps 733 mmHg 92%
    22:00 -2°C° 0 mm 5 mps 732 mmHg 92%
    23:00 -2°C° 0 mm 5 mps 731 mmHg 92%

    13 December, Friday

    Time Temperature Precipitation Wind Pressure Humidity
    00:00 -2°C° 0 mm 5 mps 730 mmHg 93%
    01:00 -1°C° 0 mm 5 mps 729 mmHg 93%
    02:00 -3°C° 0 mm 6 mps 728 mmHg 91%
    03:00 -3°C° 0 mm 6 mps 727 mmHg 88%
    04:00 -4°C° 0 mm 6 mps 725 mmHg 85%
    05:00 -4°C° 0 mm 7 mps 725 mmHg 82%
    06:00 -5°C° 0 mm 8 mps 724 mmHg 78%
    07:00 -5°C° 0 mm 8 mps 723 mmHg 75%
    08:00 -5°C° 0.1 mm 8 mps 722 mmHg 76%
    09:00 -4°C° 0.1 mm 8 mps 722 mmHg 77%
    10:00 -3°C° 0.1 mm 7 mps 721 mmHg 78%
    11:00 -3°C° 0.1 mm 7 mps 720 mmHg 81%
    12:00 -3°C° 0.1 mm 7 mps 720 mmHg 84%
    13:00 -3°C° 0.1 mm 6 mps 719 mmHg 87%
    14:00 -3°C° 0.1 mm 6 mps 720 mmHg 89%
    15:00 -2°C° 0.1 mm 5 mps 720 mmHg 91%
    16:00 -1°C° 0.1 mm 5 mps 720 mmHg 92%
    17:00 -1°C° 0 mm 5 mps 720 mmHg 91%
    18:00 -1°C° 0 mm 5 mps 719 mmHg 90%
    19:00 -2°C° 0 mm 6 mps 719 mmHg 89%
    20:00 -2°C° 0.4 mm 7 mps 719 mmHg 91%
    21:00 -2°C° 0.4 mm 8 mps 718 mmHg 93%
    22:00 -3°C° 0.4 mm 9 mps 718 mmHg 96%
    23:00 -1°C° 0.6 mm 9 mps 718 mmHg 92%

    14 December, Saturday

    Time Temperature Precipitation Wind Pressure Humidity
    00:00 -1°C° 0.6 mm 9 mps 718 mmHg 89%
    01:00 0°C° 0.6 mm 9 mps 718 mmHg 85%
    02:00 0°C° 0 mm 8 mps 718 mmHg 84%
    03:00 0°C° 0 mm 8 mps 718 mmHg 83%
    04:00 -1°C° 0 mm 8 mps 719 mmHg 82%
    05:00 -1°C° 0 mm 8 mps 720 mmHg 84%
    06:00 -1°C° 0 mm 8 mps 720 mmHg 86%
    07:00 -1°C° 0 mm 8 mps 721 mmHg 88%
    08:00 -1°C° 0 mm 8 mps 722 mmHg 87%
    09:00 -1°C° 0 mm 7 mps 723 mmHg 85%
    10:00 0°C° 0 mm 7 mps 724 mmHg 84%
    11:00 0°C° 0 mm 7 mps 724 mmHg 83%
    12:00 0°C° 0 mm 7 mps 725 mmHg 83%
    13:00 0°C° 0 mm 7 mps 725 mmHg 82%
    14:00 0°C° 0 mm 7 mps 726 mmHg 82%
    15:00 +1°C° 0 mm 6 mps 727 mmHg 82%
    16:00 +1°C° 0 mm 6 mps 728 mmHg 82%
    17:00 +1°C° 0 mm 6 mps 728 mmHg 83%
    18:00 +1°C° 0 mm 6 mps 729 mmHg 83%
    19:00 +1°C° 0 mm 6 mps 729 mmHg 84%
    20:00 +1°C° 0 mm 6 mps 730 mmHg 83%
    21:00 +1°C° 0 mm 6 mps 731 mmHg 83%
    22:00 +1°C° 0 mm 6 mps 731 mmHg 82%
    23:00 +1°C° 0 mm 6 mps 732 mmHg 82%
    Show more